This demonstration page uses our WeatherBlox Daily Observations layout. Learn more.

Left ArrowRight Arrow

44.89941, -97.11507

Hourly Observations for August 6, 2016

Temp ( °F °C ) Dew Point ( °F °C ) Humidity (%) Winds ( mph kmh ) Pressure ( in mb ) Visibility ( mi km ) Precip ( " mm )
12:53 am 00:53 Clear 63 17.2 56 13.3 78 78 Calm 30.09 1019 10 16 0.00 0.00
1:53 am 01:53 Clear 61 16.1 56 13.3 84 84 Calm 30.11 1020 10 16 0.00 0.00
2:53 am 02:53 Clear 59 15 55 12.8 87 87 Calm 30.10 1019 10 16 0.00 0.00
3:53 am 03:53 Clear 59 15 55 12.8 87 87 Calm 30.11 1020 10 16 0.00 0.00
4:53 am 04:53 Clear 56 13.3 53 11.7 90 90 Calm 30.11 1020 10 16 0.00 0.00
5:53 am 05:53 Clear 57 13.9 53 11.7 87 87 Calm 30.11 1020 10 16 0.00 0.00
6:53 am 06:53 Sunny 55 12.8 53 11.7 93 93 Calm 30.12 1020 10 16 0.00 0.00
7:53 am 07:53 Sunny 62 16.7 58 14.4 86 86 Calm 30.11 1020 10 16 0.00 0.00
8:53 am 08:53 Sunny 67 19.4 59 15 76 76 SW 3 6 30.11 1020 10 16 0.00 0.00
9:53 am 09:53 Sunny 72 22.2 60 15.6 66 66 W 5 7 30.10 1019 10 16 0.00 0.00
10:53 am 10:53 Sunny 76 24.4 54 12.2 47 47 WNW 5 7 30.11 1020 10 16 0.00 0.00
11:53 am 11:53 Sunny 78 25.6 54 12.2 43 43 NE 7 11 30.11 1020 10 16 0.00 0.00
12:53 pm 12:53 Mostly Sunny 80 26.7 53 11.7 39 39 VRB 3 6 30.10 1019 10 16 0.00 0.00
1:53 pm 13:53 Mostly Sunny 81 27.2 52 11.1 37 37 E 5 7 30.09 1019 10 16 0.00 0.00
2:53 pm 14:53 Mostly Sunny 82 27.8 52 11.1 35 35 VRB 5 7 30.07 1018 10 16 0.00 0.00
3:53 pm 15:53 Mostly Sunny 80 26.7 51 10.6 37 37 Calm 30.06 1018 10 16 0.00 0.00
4:53 pm 16:53 Mostly Sunny 80 26.7 52 11.1 38 38 E 9 15 30.06 1018 10 16 0.00 0.00
5:53 pm 17:53 Mostly Cloudy 79 26.1 53 11.7 41 41 E 5 7 30.06 1018 10 16 0.00 0.00
6:53 pm 18:53 Mostly Sunny 78 25.6 53 11.7 42 42 ENE 8 13 30.06 1018 10 16 0.00 0.00
7:53 pm 19:53 Mostly Cloudy 75 23.9 54 12.2 48 48 ESE 3 6 30.05 1018 10 16 0.00 0.00
8:53 pm 20:53 Clear 73 22.8 55 12.8 53 53 ESE 6 9 30.06 1018 10 16 0.00 0.00
9:53 pm 21:53 Clear 70 21.1 57 13.9 64 64 ESE 3 6 30.06 1018 10 16 0.00 0.00
10:53 pm 22:53 Clear 68 20 57 13.9 68 68 SE 3 6 30.07 1018 10 16 0.00 0.00
11:53 pm 23:53 Clear 66 18.9 57 13.9 73 73 SSE 5 7 30.07 1018 10 16 0.00 0.00

Powered by AerisWeather